Location: Cheyres
(46.8153°N, 6.7877°E)
Time: 14:03:14
(UTC+00:00)

USA 307 - Pass Details

Date: 11 May 2021
Orbit: 566 x 577 km, 54.0° (Epoch: 10 May)

Event Time Altitude Azimuth Distance (km) Brightness Sun altitude
Rises 19:27:34 0° 296° (WNW) 2,773 8.9 -5.4°
Reaches altitude 10° 19:29:58 10° 305° (NW) 1,877 7.5 -5.8°
Maximum altitude 19:33:56 36° 13° (NNE) 918 4.2 -6.3°
Drops below altitude 10° 19:37:54 10° 81° (E) 1,880 5.1 -6.9°
Enters shadow 19:39:32 - 88° (E) 2,485 5.7 -7.1°
